EA1QW Weather Reports


time (UTC)temp
C
wind
direction
speed
KPH
gust
KPH
rain 1hr
cm
rain 24hr
cm
rain mn
cm
humidity
%
barometer
mb
20260507080528 14 355 0.0 1.6 0.00 0.00 0.00 85 1009.8
20260507080016 14 355 0.0 0.0 0.00 0.00 0.00 86 1010.0
20260507075525 13 355 0.0 1.6 0.00 0.00 0.00 88 1009.9
20260507075033 13 355 0.0 3.2 0.00 0.00 0.00 90 1010.0
20260507074541 13 355 0.0 3.2 0.00 0.00 0.00 91 1010.0
20260507074028 13 355 0.0 4.8 0.00 0.00 0.00 92 1010.2
20260507073516 12 355 0.0 4.8 0.00 0.00 0.00 93 1010.1
20260507073021 12 355 0.0 4.8 0.00 0.00 0.00 95 1010.1
20260507072510 12 355 0.0 0.0 0.00 0.00 0.00 95 1010.1
20260507072017 12 355 0.0 1.6 0.00 0.00 0.00 96 1010.1
20260507071525 12 355 0.0 0.0 0.00 0.00 0.00 97 1010.0
20260507071014 12 355 0.0 0.0 0.00 0.00 0.00 97 1010.1
20260507070542 11 355 0.0 0.0 0.00 0.00 0.00 97 1010.1
20260507070028 11 355 0.0 4.8 0.00 0.00 0.00 98 1010.1
20260507065516 11 355 0.0 3.2 0.00 0.00 0.00 98 1010.1
20260507065024 11 355 0.0 0.0 0.00 0.00 0.00 98 1010.1
20260507064513 11 355 0.0 0.0 0.00 0.00 0.00 98 1010.1
20260507064041 10 355 0.0 1.6 0.00 0.00 0.00 98 1010.1
20260507063508 10 355 0.0 1.6 0.00 0.00 0.00 98 1010.2
20260507063016 10 31 0.0 0.0 0.00 0.00 0.00 98 1010.3
20260507062545 10 31 0.0 0.0 0.00 0.00 0.00 97 1010.3
20260507062013 10 31 0.0 0.0 0.00 0.00 0.00 97 1010.2
20260507061521 10 31 0.0 3.2 0.00 0.00 0.00 97 1010.2
20260507061009 10 31 0.0 4.8 0.00 0.00 0.00 97 1010.1
20260507060518 10 31 0.0 4.8 0.00 0.00 0.00 97 1010.1
20260507060025 10 31 0.0 1.6 0.00 0.00 0.00 97 1010.1
20260507055513 10 31 0.0 0.0 0.00 0.00 0.00 96 1010.1
20260507055022 10 31 0.0 0.0 0.00 0.00 0.00 96 1010.2
20260507054510 9 31 0.0 0.0 0.00 0.00 0.00 96 1010.1
20260507054015 9 31 0.0 0.0 0.00 0.00 0.00 96 1010.0
20260507053523 10 31 0.0 0.0 0.00 0.00 0.00 96 1009.9
20260507053012 10 31 0.0 0.0 0.00 0.00 0.00 95 1010.0
20260507052542 10 31 0.0 0.0 0.00 0.00 0.00 95 1010.0
20260507052028 10 31 0.0 0.0 0.00 0.00 0.00 95 1010.0
20260507051517 10 31 0.0 0.0 0.00 0.00 0.00 95 1010.0
20260507051024 10 31 0.0 0.0 0.00 0.00 0.00 95 1010.1
20260507050512 10 31 0.0 0.0 0.00 0.00 0.00 95 1010.0
20260507050021 10 31 0.0 0.0 0.00 0.00 0.00 95 1010.1
20260507045509 10 31 0.0 0.0 0.00 0.00 0.00 95 1010.0
20260507045014 10 31 0.0 0.0 0.00 0.00 0.00 95 1010.1
20260507044523 10 31 0.0 0.0 0.00 0.00 0.00 95 1010.1
20260507044011 10 31 0.0 0.0 0.00 0.00 0.00 95 1010.1
20260507043540 10 31 0.0 0.0 0.00 0.00 0.00 95 1010.1
20260507043048 10 31 0.0 0.0 0.00 0.00 0.00 95 1010.1
20260507042515 10 31 0.0 0.0 0.00 0.00 0.00 95 1010.2
20260507042024 10 31 0.0 0.0 0.00 0.00 0.00 95 1010.2
20260507041510 10 31 0.0 0.0 0.00 0.00 0.00 95 1010.2
20260507041015 10 31 0.0 0.0 0.00 0.00 0.00 95 1010.2
20260507040544 11 31 0.0 0.0 0.00 0.00 0.00 95 1010.1
20260507040010 11 31 0.0 0.0 0.00 0.00 0.00 95 1010.3
20260507035518 11 31 0.0 0.0 0.00 0.00 0.00 95 1010.3
20260507035027 11 31 0.0 3.2 0.00 0.00 0.00 95 1010.3
20260507034536 11 31 0.0 3.2 0.00 0.00 0.00 95 1010.3
20260507034023 11 31 0.0 3.2 0.00 0.00 0.00 95 1010.4
20260507033531 11 31 0.0 0.0 0.00 0.00 0.00 95 1010.3
20260507033038 11 31 0.0 0.0 0.00 0.00 0.00 95 1010.3
20260507032546 11 31 0.0 0.0 0.00 0.00 0.00 95 1010.4
20260507032013 11 31 0.0 0.0 0.00 0.00 0.00 95 1010.4
20260507031522 11 31 0.0 0.0 0.00 0.00 0.00 95 1010.4
20260507031010 11 31 0.0 0.0 0.00 0.00 0.00 95 1010.5
20260507030516 11 31 0.0 0.0 0.00 0.00 0.00 95 1010.5
20260507030044 11 31 0.0 0.0 0.00 0.10 0.00 94 1010.6
20260507025531 11 31 0.0 0.0 0.00 0.10 0.00 94 1010.6
20260507025014 11 31 0.0 0.0 0.00 0.10 0.00 94 1010.6
20260507024523 11 31 0.0 0.0 0.00 0.10 0.00 94 1010.6
20260507024012 11 31 0.0 0.0 0.00 0.10 0.00 94 1010.6
20260507023520 11 31 0.0 0.0 0.00 0.10 0.00 94 1010.7
20260507023028 11 31 0.0 0.0 0.00 0.10 0.00 94 1010.7
20260507022516 11 31 0.0 0.0 0.00 0.10 0.00 94 1010.7
20260507022024 11 31 0.0 0.0 0.00 0.10 0.00 94 1010.6
20260507021512 11 31 0.0 0.0 0.00 0.10 0.00 93 1010.8
20260507021019 11 31 0.0 0.0 0.00 0.10 0.00 93 1010.8
20260507020512 11 31 0.0 0.0 0.00 0.10 0.00 93 1010.9
20260507020020 11 31 0.0 0.0 0.00 0.10 0.00 93 1010.9
20260507015508 11 31 0.0 0.0 0.00 0.10 0.00 93 1010.9
20260507015016 11 31 0.0 0.0 0.00 0.10 0.00 93 1010.9
20260507014524 11 31 0.0 0.0 0.00 0.10 0.00 93 1010.9
20260507014012 11 31 0.0 0.0 0.00 0.10 0.00 93 1011.0
20260507013542 11 31 0.0 0.0 0.00 0.10 0.00 92 1011.0
20260507013009 11 31 0.0 0.0 0.00 0.10 0.00 92 1011.0
20260507012518 11 31 0.0 0.0 0.00 0.10 0.00 92 1011.0
20260507012026 11 31 0.0 0.0 0.00 0.10 0.00 92 1011.1
20260507011514 11 31 0.0 0.0 0.00 0.10 0.00 92 1011.1
20260507011019 11 31 0.0 0.0 0.00 0.10 0.00 92 1011.1
20260507010528 11 31 0.0 0.0 0.00 0.10 0.00 92 1011.2
20260507010015 11 31 0.0 0.0 0.00 0.10 0.00 92 1011.2
20260507005523 11 31 0.0 0.0 0.00 0.10 0.00 92 1011.3
20260507005011 11 31 0.0 0.0 0.00 0.10 0.00 92 1011.3
20260507004520 11 31 0.0 0.0 0.00 0.10 0.00 92 1011.3
20260507004028 11 31 0.0 0.0 0.00 0.10 0.00 92 1011.4
20260507003516 11 31 0.0 0.0 0.00 0.10 0.00 92 1011.4
20260507003025 12 31 0.0 0.0 0.00 0.10 0.00 92 1011.5
20260507002514 12 31 0.0 0.0 0.00 0.10 0.00 91 1011.7
20260507002022 12 31 0.0 0.0 0.00 0.10 0.00 91 1011.7
20260507001510 12 31 0.0 0.0 0.00 0.10 0.00 91 1011.7
20260507001016 12 31 0.0 0.0 0.00 0.10 0.00 91 1011.7
20260507000524 12 31 0.0 0.0 0.00 0.10 0.00 90 1011.6
20260507000012 12 31 0.0 0.0 0.00 0.10 0.03 90 1011.7
20260506235521 12 31 0.0 0.0 0.00 0.10 0.03 90 1011.8
20260506235028 12 31 0.0 0.0 0.00 0.10 0.03 90 1011.9
20260506234515 12 31 0.0 0.0 0.00 0.10 0.03 90 1012.0
20260506234044 12 31 0.0 0.0 0.00 0.10 0.03 90 1012.0
20260506233531 12 31 0.0 0.0 0.00 0.10 0.03 90 1012.0
20260506233016 12 31 0.0 0.0 0.00 0.10 0.03 90 1012.1
20260506232524 12 31 0.0 0.0 0.00 0.10 0.03 90 1012.1
20260506232012 12 31 0.0 0.0 0.00 0.10 0.03 90 1012.0
20260506231520 12 31 0.0 0.0 0.00 0.10 0.03 90 1012.0
20260506231048 12 31 0.0 0.0 0.00 0.10 0.03 90 1012.0
20260506230516 12 31 0.0 0.0 0.00 0.10 0.03 90 1011.9
20260506230023 12 31 0.0 0.0 0.00 0.20 0.03 90 1012.0
20260506225511 13 31 0.0 0.0 0.00 0.20 0.03 90 1012.0
20260506225019 12 31 0.0 0.0 0.00 0.20 0.03 90 1012.0
20260506224526 12 31 0.0 0.0 0.00 0.20 0.03 90 1011.9
20260506224013 12 31 0.0 0.0 0.00 0.20 0.03 90 1012.0
20260506223521 12 31 0.0 0.0 0.00 0.20 0.03 90 1012.1
20260506223029 12 31 0.0 0.0 0.00 0.20 0.03 90 1012.2
20260506222516 13 31 0.0 0.0 0.00 0.20 0.03 89 1012.2
20260506222024 13 31 0.0 0.0 0.00 0.20 0.03 89 1012.3
20260506221512 13 31 0.0 0.0 0.00 0.20 0.03 89 1012.4
20260506221018 13 31 0.0 0.0 0.00 0.20 0.03 89 1012.5
20260506220525 13 31 0.0 0.0 0.00 0.20 0.03 89 1012.5
20260506220014 13 31 0.0 0.0 0.00 0.41 0.03 89 1012.5
20260506215522 13 31 0.0 0.0 0.00 0.41 0.03 89 1012.6
20260506215010 13 31 0.0 0.0 0.00 0.41 0.03 89 1012.6
20260506214539 13 31 0.0 0.0 0.00 0.41 0.03 89 1012.6
20260506214026 13 31 0.0 0.0 0.00 0.41 0.03 89 1012.6
20260506213534 13 31 0.0 0.0 0.00 0.41 0.03 89 1012.5
20260506213022 13 31 0.0 0.0 0.00 0.41 0.03 88 1012.5
20260506212510 13 31 0.0 0.0 0.00 0.41 0.03 88 1012.4
20260506212017 13 31 0.0 0.0 0.00 0.41 0.03 87 1012.5
20260506211546 13 31 0.0 0.0 0.00 0.41 0.03 87 1012.5
20260506211013 13 31 0.0 0.0 0.00 0.41 0.03 86 1012.6
20260506210521 13 31 0.0 0.0 0.00 0.41 0.03 85 1012.6
20260506210047 13 31 0.0 0.0 0.00 0.41 0.03 84 1012.5
20260506205514 13 31 0.0 0.0 0.00 0.41 0.03 85 1012.5
20260506205022 13 31 0.0 0.0 0.00 0.41 0.03 85 1012.6
20260506204514 13 31 0.0 0.0 0.00 0.41 0.03 85 1012.6
20260506204039 13 31 0.0 0.0 0.00 0.41 0.03 85 1012.5
20260506203525 13 31 0.0 0.0 0.00 0.41 0.03 85 1012.5
20260506203016 13 31 0.0 0.0 0.00 0.41 0.03 85 1012.5
20260506202524 13 31 0.0 0.0 0.00 0.41 0.03 85 1012.5
20260506202013 14 31 0.0 0.0 0.00 0.41 0.03 84 1012.5
20260506201521 14 31 0.0 0.0 0.00 0.41 0.03 84 1012.4
20260506201028 14 31 0.0 0.0 0.00 0.41 0.03 82 1012.4
20260506200537 14 31 0.0 0.0 0.00 0.41 0.03 82 1012.3
20260506200045 14 31 0.0 0.0 0.00 0.41 0.03 82 1012.4
20260506195528 14 31 0.0 0.0 0.00 0.41 0.03 82 1012.3
20260506195014 14 31 0.0 0.0 0.00 0.41 0.03 82 1012.3
20260506194518 14 31 0.0 0.0 0.00 0.41 0.03 81 1012.2
20260506194020 14 31 0.0 0.0 0.00 0.41 0.03 81 1012.3
20260506193525 14 31 0.0 0.0 0.00 0.41 0.03 81 1012.3
20260506193028 14 31 0.0 0.0 0.00 0.41 0.03 81 1012.2
20260506192512 14 31 0.0 0.0 0.00 0.41 0.03 80 1012.2
20260506192038 14 31 0.0 0.0 0.00 0.41 0.03 80 1012.2
20260506191520 14 31 0.0 4.8 0.00 0.41 0.03 80 1012.2
20260506191048 14 31 0.0 4.8 0.00 0.41 0.03 80 1012.3
20260506190546 14 31 0.0 1.6 0.00 0.41 0.03 80 1012.2
20260506190029 15 31 0.0 4.8 0.00 0.41 0.03 79 1012.2
20260506185515 15 31 1.6 4.8 0.00 0.41 0.03 80 1012.1
20260506185043 15 31 0.0 6.4 0.00 0.41 0.03 79 1012.2
20260506184527 15 31 4.8 6.4 0.00 0.41 0.03 79 1012.1
20260506184014 15 33 1.6 6.4 0.00 0.41 0.03 78 1012.1
20260506183520 15 33 1.6 8.0 0.00 0.41 0.03 78 1012.0
20260506183025 15 22 1.6 8.0 0.00 0.41 0.03 78 1012.0
20260506182513 15 22 3.2 8.0 0.00 0.41 0.03 79 1012.2
20260506182017 15 346 3.2 6.4 0.00 0.41 0.03 79 1012.2
20260506181523 15 345 0.0 6.4 0.00 0.41 0.03 79 1012.2
20260506181026 15 345 1.6 8.0 0.00 0.41 0.03 79 1012.2
20260506180511 15 345 4.8 9.7 0.00 0.41 0.03 79 1012.2
20260506180017 15 340 1.6 12.9 0.00 0.41 0.03 79 1012.2
20260506175540 15 329 4.8 12.9 0.00 0.41 0.03 79 1012.2
20260506175017 15 355 0.0 8.0 0.00 0.41 0.03 80 1012.3
20260506174519 15 5 3.2 16.1 0.00 0.41 0.03 80 1012.3
20260506174020 15 318 6.4 16.1 0.00 0.41 0.03 79 1012.3
20260506173523 15 355 4.8 14.5 0.00 0.41 0.03 80 1012.2
20260506173011 15 330 4.8 16.1 0.00 0.41 0.03 79 1012.2
20260506172514 16 15 8.0 14.5 0.00 0.41 0.03 79 1012.2
20260506172017 16 355 8.0 16.1 0.00 0.41 0.03 77 1012.2
20260506171538 16 38 8.0 16.1 0.00 0.41 0.03 77 1012.3
20260506171041 16 294 6.4 14.5 0.00 0.41 0.03 78 1012.2
20260506170522 16 315 6.4 14.5 0.00 0.41 0.03 77 1012.3
20260506170028 16 306 6.4 12.9 0.00 0.41 0.03 78 1012.3
20260506165515 16 289 3.2 12.9 0.00 0.41 0.03 77 1012.4
20260506165043 16 294 6.4 14.5 0.00 0.41 0.03 77 1012.3
20260506164510 16 288 4.8 14.5 0.00 0.41 0.03 77 1012.3
20260506164038 16 21 3.2 16.1 0.00 0.41 0.03 77 1012.2
20260506163526 16 19 6.4 17.7 0.00 0.41 0.03 77 1012.2
20260506163034 16 11 8.0 17.7 0.00 0.41 0.03 76 1012.1
20260506162541 16 350 3.2 14.5 0.00 0.41 0.03 76 1012.2
20260506162029 16 310 3.2 12.9 0.00 0.41 0.03 76 1012.2
20260506161517 16 307 8.0 12.9 0.00 0.41 0.03 75 1012.1
20260506161045 16 340 3.2 14.5 0.00 0.41 0.03 76 1012.1
20260506160532 16 281 4.8 14.5 0.00 0.41 0.03 76 1012.2
20260506160018 16 315 1.6 16.1 0.00 0.41 0.03 76 1012.1
20260506155544 16 337 4.8 16.1 0.00 0.41 0.03 75 1012.2
20260506155029 16 313 4.8 14.5 0.00 0.41 0.03 76 1012.2
20260506154516 16 316 8.0 16.1 0.00 0.41 0.03 75 1012.2
20260506154021 16 286 8.0 17.7 0.00 0.41 0.03 74 1012.2
20260506153528 16 313 11.3 17.7 0.00 0.41 0.03 73 1012.3
20260506153014 16 311 6.4 17.7 0.00 0.41 0.03 73 1012.3
20260506152522 16 277 6.4 17.7 0.00 0.41 0.03 72 1012.3
20260506152027 16 316 8.0 16.1 0.00 0.41 0.03 72 1012.4
20260506151515 16 296 6.4 17.7 0.00 0.41 0.03 73 1012.4
20260506151019 16 30 11.3 17.7 0.00 0.41 0.03 72 1012.5
20260506150525 16 292 8.0 14.5 0.00 0.41 0.03 74 1012.6
20260506150015 16 282 4.8 19.3 0.00 0.41 0.03 74 1012.6
20260506145520 16 343 6.4 20.9 0.00 0.41 0.03 74 1012.6
20260506145024 17 319 6.4 19.3 0.00 0.41 0.03 72 1012.6
20260506144529 17 300 4.8 19.3 0.00 0.41 0.03 73 1012.6
20260506144016 16 291 3.2 17.7 0.00 0.41 0.03 74 1012.7
20260506143521 16 343 11.3 22.5 0.00 0.41 0.03 75 1012.7
20260506143024 16 307 8.0 22.5 0.00 0.41 0.03 77 1012.7
20260506142528 16 360 9.7 22.5 0.00 0.41 0.03 78 1012.9
20260506142012 16 355 8.0 20.9 0.00 0.41 0.03 81 1012.8
20260506141516 16 282 12.9 20.9 0.00 0.41 0.03 76 1012.8
20260506141035 16 306 9.7 22.5 0.00 0.41 0.03 77 1012.8
20260506140535 16 300 11.3 22.5 0.00 0.41 0.03 75 1012.8
20260506140020 16 351 11.3 22.5 0.00 0.41 0.03 75 1012.9
20260506135523 16 304 9.7 20.9 0.00 0.41 0.03 76 1012.9
20260506135025 16 298 9.7 22.5 0.00 0.41 0.03 76 1012.9
20260506134513 16 319 6.4 22.5 0.00 0.41 0.03 77 1012.9
20260506134015 16 281 9.7 22.5 0.00 0.41 0.03 76 1013.0
20260506133518 15 286 8.0 19.3 0.00 0.41 0.03 79 1013.0
20260506133020 15 294 4.8 19.3 0.00 0.41 0.03 79 1013.1
20260506132523 15 360 8.0 22.5 0.00 0.41 0.03 79 1013.2
20260506132021 15 292 4.8 22.5 0.00 0.41 0.03 79 1013.1
20260506131525 15 298 8.0 19.3 0.00 0.41 0.03 80 1013.1
20260506131011 15 331 8.0 17.7 0.00 0.41 0.03 79 1013.1
20260506130550 15 295 6.4 17.7 0.00 0.41 0.03 78 1013.1
20260506130012 15 313 8.0 14.5 0.00 0.41 0.03 78 1013.1
20260506125517 15 287 6.4 14.5 0.00 0.41 0.03 78 1013.1
20260506125023 15 322 3.2 17.7 0.00 0.41 0.03 77 1013.2
20260506124510 15 281 4.8 17.7 0.00 0.41 0.03 76 1013.2
20260506124037 15 242 4.8 17.7 0.00 0.41 0.03 76 1013.2
20260506123544 15 333 8.0 16.1 0.00 0.41 0.03 75 1013.2
20260506123011 15 261 8.0 16.1 0.00 0.41 0.03 73 1013.2
20260506122520 15 261 3.2 16.1 0.00 0.41 0.03 74 1013.2
20260506122047 16 304 3.2 19.3 0.00 0.41 0.03 75 1013.2
20260506121514 16 297 4.8 19.3 0.00 0.41 0.03 74 1013.2
20260506121021 16 314 6.4 16.1 0.00 0.41 0.03 73 1013.3
20260506120529 16 258 6.4 16.1 0.00 0.41 0.03 73 1013.2
20260506120016 16 281 9.7 17.7 0.00 0.41 0.03 71 1013.3
20260506115519 16 296 6.4 17.7 0.00 0.41 0.03 71 1013.3
20260506115022 16 309 8.0 17.7 0.00 0.41 0.03 70 1013.3
20260506114526 16 292 9.7 17.7 0.00 0.41 0.03 69 1013.3
20260506114013 16 278 6.4 14.5 0.00 0.41 0.03 69 1013.3
20260506113517 16 304 4.8 16.1 0.00 0.41 0.03 70 1013.4
20260506113019 16 275 9.7 19.3 0.00 0.41 0.03 71 1013.4
20260506112518 16 278 11.3 19.3 0.00 0.41 0.03 72 1013.5
20260506112020 16 311 8.0 17.7 0.00 0.41 0.03 72 1013.4
20260506111523 16 311 8.0 17.7 0.00 0.41 0.03 73 1013.5
20260506111011 16 340 6.4 16.1 0.00 0.41 0.03 72 1013.5
20260506110529 16 11 3.2 19.3 0.00 0.41 0.03 72 1013.5
20260506110010 16 294 9.7 17.7 0.00 0.41 0.03 71 1013.5
20260506105514 16 270 8.0 16.1 0.00 0.41 0.03 71 1013.4
20260506105036 16 287 3.2 16.1 0.00 0.41 0.03 73 1013.4
20260506104549 16 345 9.7 16.1 0.00 0.41 0.03 71 1013.5
20260506104012 16 286 3.2 16.1 0.00 0.41 0.03 72 1013.6
20260506103515 16 271 8.0 17.7 0.00 0.41 0.03 71 1013.6
20260506103038 15 283 9.7 17.7 0.00 0.41 0.03 71 1013.5
20260506102520 15 270 9.7 17.7 0.00 0.41 0.03 70 1013.6
20260506102023 15 261 8.0 16.1 0.00 0.41 0.03 70 1013.7
20260506101526 15 275 6.4 16.1 0.00 0.41 0.03 70 1013.7
20260506101029 16 270 3.2 14.5 0.00 0.41 0.03 70 1013.6
20260506100514 16 230 4.8 12.9 0.00 0.41 0.03 71 1013.5
20260506100038 16 202 3.2 12.9 0.00 0.51 0.03 71 1013.5
20260506095520 16 199 6.4 12.9 0.00 0.51 0.03 71 1013.5
20260506095024 16 181 4.8 11.3 0.00 0.51 0.03 72 1013.7
20260506094527 15 208 0.0 14.5 0.00 0.51 0.03 72 1013.5
20260506094013 15 203 8.0 14.5 0.00 0.51 0.03 73 1013.6
20260506093516 15 227 6.4 14.5 0.00 0.51 0.03 73 1013.6
20260506093019 15 197 6.4 12.9 0.00 0.51 0.03 73 1013.5
20260506092522 15 206 3.2 9.7 0.00 0.51 0.03 74 1013.5
20260506092025 15 194 3.2 9.7 0.00 0.51 0.03 74 1013.6
20260506091525 15 186 6.4 11.3 0.00 0.51 0.03 75 1013.5
20260506091028 15 200 6.4 11.3 0.00 0.51 0.03 75 1013.5
20260506090511 15 208 1.6 14.5 0.00 0.51 0.03 75 1013.4
20260506090017 15 207 8.0 14.5 0.00 0.71 0.03 76 1013.5
20260506085539 14 262 4.8 16.1 0.00 0.71 0.03 76 1013.4
20260506085021 14 211 4.8 12.9 0.00 0.71 0.03 76 1013.5
20260506084545 14 196 8.0 12.9 0.00 0.71 0.03 77 1013.5
20260506084027 14 212 4.8 14.5 0.00 0.71 0.03 78 1013.5
20260506083551 13 181 3.2 11.3 0.00 0.71 0.03 79 1013.5
20260506083012 13 200 6.4 11.3 0.00 0.71 0.03 81 1013.5
20260506082536 13 176 6.4 11.3 0.00 0.71 0.03 82 1013.5
20260506082015 13 186 3.2 9.7 0.00 0.71 0.03 84 1013.5
20260506081517 13 186 3.2 8.0 0.00 0.71 0.03 86 1013.6
20260506081021 12 186 1.6 9.7 0.00 0.71 0.03 86 1013.6